Location: Gainesville
(29.6330°N, 82.4330°W)
Time: 11:19:21
(UTC-05:00)

ISS - Visible Passes

Search period start: 13 December 2019 00:00
Search period end: 23 December 2019 00:00
Orbit: 411 x 421 km, 51.6° (Epoch: 14 December)

Date Brightness Start Highest point End Pass type
(mag) Time Alt. Az. Time Alt. Az. Time Alt. Az.
13 Dec -3.7 17:51:58 10° NW 17:55:19 88° SW 17:58:40 10° SE visible
14 Dec -0.1 18:42:19 10° WSW 18:43:13 11° SW 18:44:08 10° SW visible
19 Dec -1.0 06:28:18 10° S 06:30:59 23° SE 06:33:41 10° ENE visible
20 Dec -0.3 05:41:22 10° SSE 05:42:36 12° SE 05:43:49 10° ESE visible
21 Dec -3.9 06:27:07 10° SW 06:30:26 85° NW 06:33:44 10° NE visible
22 Dec -2.6 05:40:24 25° S 05:41:55 43° SE 05:45:04 10° ENE visible
